TimeCDT,TemperatureF,Dew PointF,Humidity,Sea Level PressureIn,VisibilityMPH,Wind Direction,Wind SpeedMPH,Gust SpeedMPH,PrecipitationIn,Events,Conditions,WindDirDegrees,DateUTC
12:15 AM,75.2,73.4,94,30.01,10.0,Calm,Calm,-,N/A,,Clear,0,2013-06-27 05:15:00
12:35 AM,75.2,73.6,95,30.01,7.0,Calm,Calm,-,N/A,,Clear,0,2013-06-27 05:35:00
1:15 AM,75.0,73.4,95,30.00,7.0,Calm,Calm,-,N/A,,Clear,0,2013-06-27 06:15:00
1:35 AM,75.0,73.4,95,30.00,7.0,Calm,Calm,-,N/A,,Clear,0,2013-06-27 06:35:00
1:55 AM,75.2,73.6,95,30.01,7.0,Calm,Calm,-,N/A,,Clear,0,2013-06-27 06:55:00
2:15 AM,73.8,72.3,95,30.00,5.0,SSE,4.6,-,N/A,,Clear,150,2013-06-27 07:15:00
2:35 AM,74.5,73.4,96,30.00,7.0,SE,4.6,-,N/A,,Clear,140,2013-06-27 07:35:00
2:55 AM,74.3,72.9,95,30.00,7.0,South,3.5,-,N/A,,Clear,170,2013-06-27 07:55:00
3:15 AM,74.3,73.2,96,30.00,7.0,Calm,Calm,-,N/A,,Clear,0,2013-06-27 08:15:00
3:35 AM,74.7,73.4,96,30.00,5.0,Calm,Calm,-,N/A,,Clear,0,2013-06-27 08:35:00
3:55 AM,74.3,73.2,96,30.00,4.0,Calm,Calm,-,N/A,,Clear,0,2013-06-27 08:55:00
4:15 AM,74.5,73.4,96,30.00,7.0,Calm,Calm,-,N/A,,Clear,0,2013-06-27 09:15:00
4:35 AM,74.5,73.2,96,30.01,7.0,Calm,Calm,-,N/A,,Clear,0,2013-06-27 09:35:00
4:55 AM,74.5,73.4,96,30.01,7.0,Calm,Calm,-,N/A,,Clear,0,2013-06-27 09:55:00
5:15 AM,74.5,73.0,95,30.02,10.0,Calm,Calm,-,N/A,,Clear,0,2013-06-27 10:15:00
5:35 AM,75.4,73.4,94,30.02,10.0,Calm,Calm,-,N/A,,Clear,0,2013-06-27 10:35:00
5:55 AM,74.7,73.0,95,30.03,10.0,Calm,Calm,-,N/A,,Clear,0,2013-06-27 10:55:00
6:00 AM,75.2,73.4,94,30.03,10.0,Calm,Calm,-,N/A,,Clear,0,2013-06-27 11:00:00
6:15 AM,74.3,72.7,95,30.03,7.0,Calm,Calm,-,N/A,,Clear,0,2013-06-27 11:15:00
6:35 AM,74.1,72.9,96,30.04,7.0,Calm,Calm,-,N/A,,Clear,0,2013-06-27 11:35:00
6:50 AM,75.2,73.4,94,30.04,10.0,Calm,Calm,-,N/A,,Clear,0,2013-06-27 11:50:00
6:55 AM,75.2,73.6,95,30.03,7.0,Calm,Calm,-,N/A,,Clear,0,2013-06-27 11:55:00
7:50 AM,80.6,75.2,84,30.03,10.0,Calm,Calm,-,N/A,,Clear,0,2013-06-27 12:50:00
8:50 AM,84.2,73.4,70,30.04,10.0,WSW,5.8,-,N/A,,Scattered Clouds,240,2013-06-27 13:50:00
9:50 AM,87.8,73.4,62,30.04,10.0,SW,4.6,-,N/A,,Scattered Clouds,230,2013-06-27 14:50:00
10:45 AM,73.4,69.8,88,29.76,10.0,NE,5.8,-,N/A,,Overcast,40,2013-06-27 15:45:00
10:50 AM,87.8,71.6,58,30.03,10.0,West,9.2,-,N/A,,Scattered Clouds,280,2013-06-27 15:50:00
11:50 AM,89.6,71.6,55,30.02,10.0,West,6.9,-,N/A,,Scattered Clouds,270,2013-06-27 16:50:00
12:52 PM,91.4,71.6,52,30.01,10.0,WNW,5.8,-,N/A,,Scattered Clouds,290,2013-06-27 17:52:00
1:45 PM,91.4,71.6,52,29.99,10.0,WSW,8.1,-,N/A,,Scattered Clouds,250,2013-06-27 18:45:00
2:58 PM,-9999,-9999,N/A,29.98,10.0,West,6.9,-,N/A,,Scattered Clouds,260,2013-06-27 19:58:00
3:55 PM,93.2,69.8,46,29.97,10.0,WNW,5.8,-,N/A,,Scattered Clouds,300,2013-06-27 20:55:00
4:50 PM,93.2,69.8,46,29.95,10.0,Calm,Calm,-,N/A,,Scattered Clouds,0,2013-06-27 21:50:00
5:50 PM,91.4,71.6,52,29.95,10.0,SSW,8.1,-,N/A,,Scattered Clouds,200,2013-06-27 22:50:00
6:55 PM,91.4,73.4,55,29.94,10.0,SSW,11.5,-,N/A,,Partly Cloudy,200,2013-06-27 23:55:00
7:50 PM,87.8,73.4,62,29.94,10.0,SSW,8.1,-,N/A,,Partly Cloudy,200,2013-06-28 00:50:00
8:50 PM,86.0,73.4,66,29.94,10.0,SSW,6.9,-,N/A,,Clear,210,2013-06-28 01:50:00
9:50 PM,84.2,73.4,70,29.94,10.0,SW,6.9,-,N/A,,Clear,220,2013-06-28 02:50:00
11:15 PM,82.8,73.8,74,29.96,10.0,Calm,Calm,-,N/A,,Clear,0,2013-06-28 04:15:00
11:35 PM,82.4,73.8,75,29.96,10.0,SSW,4.6,-,N/A,,Clear,210,2013-06-28 04:35:00
11:55 PM,82.4,73.9,75,29.97,10.0,SW,3.5,-,N/A,,Clear,230,2013-06-28 04:55:00